This is the latest recevied weather packets stored in our database for station/object KC1DMA. If no packets are shown the sender has not sent any weather packets the latest 10 day(s).
| Time | Temp. | Humidity | Pressure | Rain* | Wind** | Luminosity | Snow |
|---|---|---|---|---|---|---|---|
| 1777910949 | 18.33° C | 35% | 1012.6 hPa | - | - | 831 W/m² | - |
| 1777910647 | 18.89° C | 35% | 1012.6 hPa | - | - | 831 W/m² | - |
| 1777910343 | 18.33° C | 34% | 1012.7 hPa | - | - | 831 W/m² | - |
| 1777910040 | 18.33° C | 34% | 1013.1 hPa | - | - | 831 W/m² | - |
| 1777909737 | 18.89° C | 35% | 1013 hPa | - | - | 819 W/m² | - |
| 1777909434 | 17.78° C | 35% | 1013.2 hPa | - | - | 839 W/m² | - |
| 1777909132 | 17.78° C | 36% | 1013.1 hPa | - | - | 774 W/m² | - |
| 1777908830 | 17.78° C | 34% | 1013.2 hPa | - | - | 786 W/m² | - |
| 1777908526 | 18.33° C | 37% | 1013.2 hPa | - | - | 812 W/m² | - |
| 1777908223 | 18.33° C | 35% | 1013.2 hPa | - | - | 672 W/m² | - |
| 1777907920 | 18.33° C | 34% | 1013 hPa | - | - | 744 W/m² | - |
| 1777907615 | 17.78° C | 36% | 1013.3 hPa | - | - | 734 W/m² | - |
| 1777907311 | 17.22° C | 36% | 1013.2 hPa | - | - | 761 W/m² | - |
| 1777907008 | 17.22° C | 36% | 1013.3 hPa | - | - | 761 W/m² | - |
| 1777906706 | 17.78° C | 37% | 1013.5 hPa | - | - | 739 W/m² | - |
| 1777906401 | 17.78° C | 37% | 1013.5 hPa | - | - | 735 W/m² | - |
| 1777906098 | 17.22° C | 36% | 1013.7 hPa | - | - | 721 W/m² | - |
| 1777905795 | 16.67° C | 37% | 1013.2 hPa | - | - | 714 W/m² | - |
| 1777905492 | 17.22° C | 36% | 1013.5 hPa | - | - | 699 W/m² | - |
| 1777905189 | 17.22° C | 37% | 1013.6 hPa | - | - | 690 W/m² | - |
| 1777904887 | 17.22° C | 36% | 1013.7 hPa | - | - | 676 W/m² | - |
| 1777904583 | 17.22° C | 38% | 1013.7 hPa | - | - | 666 W/m² | - |
| 1777904280 | 16.67° C | 38% | 1013.7 hPa | - | - | 653 W/m² | - |
| 1777903978 | 16.67° C | 39% | 1013.9 hPa | - | - | 626 W/m² | - |
| 1777903674 | 16.67° C | 37% | 1013.9 hPa | - | - | 635 W/m² | - |
* Rain since midnight (hover to see other rain measurements)
** Current wind speed in m/s (hover to see current wind gust speed)